(202288) = 2005 CR11 = 1999 YF22

Discovered at Kitt Peak on 2005-02-01 by Spacewatch.

Orbit

Orbit type: Main Belt

Note: WebGL enabled browser required.

epoch2023-09-13.0
epoch JD2460200.5
perihelion date2019-07-02.88373
perihelion JD2458667.38373
argument of perihelion (°)153.59121
ascending node (°)104.50510
inclination (°)2.88241
eccentricity0.0337971
perihelion distance (AU)2.5772488
Tisserand w.r.t. Jupiter3.4
ΔV w.r.t. Earth (km/sec)10.0
semimajor axis (AU)2.6673993
mean anomaly (°)346.85414
mean daily motion (°/day)0.22624130
aphelion distance (AU)2.758
period (years)4.36
P-vector [x]-0.20572247
P-vector [y]-0.90651963
P-vector [z]-0.36864675
Q-vector [x]0.97739868
Q-vector [y]-0.17159152
Q-vector [z]-0.12348349
absolute magnitude16.14
phase slope0.15
uncertainty0
referenceMPEC 2023-P27
observations used533
oppositions17
arc length (days)10535
first opposition used1994
last opposition used2023
residual rms (arc-secs)0.74
perturbers coarse indicatorM-v
perturbers precise indicator003Ek
first observation date used1994-10-02.0
last observation date used2023-08-06.0
computer nameMPCLINUX
JD of orbit computation2456937.371484
perihelion JD uncertainty (days)3.8805E-04
argument of perihelion uncertainty (°)1.2576E-04
ascending node uncertainty (°)9.1526E-05
inclination uncertainty (°)3.8613E-06
eccentricity uncertainty 3.7433E-08
perihelion distance uncertainty (AU)9.9912E-08
Minimum Orbit Intersection Distances (in AU)
for orbit epoch: 2460200.5, reference: E2023-P27
Mercury2.11248
Venus1.85124
Earth1.56152
Mars0.99431
Jupiter2.23572
Saturn6.29627
Uranus15.7722
Neptune27.1081

Observations

548 total observations over interval: 1994 10 02.43387 – 2023 08 06.293492
These data are available for download (format description).

Date (UT) J2000 RA J2000 Dec Magn Location Ref
1994 10 02.43387 01 22 24.49 +03 47 24.9 20.4 V 691 – Steward Observatory, Kitt Peak-Spacewatch MPS 126827
1994 10 02.45254 01 22 23.55 +03 47 19.2   691 – Steward Observatory, Kitt Peak-Spacewatch MPS 126827
1994 10 02.47056 01 22 22.71 +03 47 13.7   691 – Steward Observatory, Kitt Peak-Spacewatch MPS 126827
1999 12 27.23296 05 14 56.52 +21 32 33.5 19.2 V 691 – Steward Observatory, Kitt Peak-Spacewatch MPS 14080
1999 12 27.25595 05 14 55.29 +21 32 34.0 19.9 V 691 – Steward Observatory, Kitt Peak-Spacewatch MPS 14080
1999 12 27.27873 05 14 53.97 +21 32 34.2 19.7 V 691 – Steward Observatory, Kitt Peak-Spacewatch MPS 14080
2000 01 02.22999 05 09 41.20 +21 33 20.5 20.1 V 691 – Steward Observatory, Kitt Peak-Spacewatch MPS 14080
2000 01 02.25403 05 09 39.97 +21 33 20.5 20.4 V 691 – Steward Observatory, Kitt Peak-Spacewatch MPS 14080
2000 01 02.27865 05 09 38.70 +21 33 20.5 20.3 V 691 – Steward Observatory, Kitt Peak-Spacewatch MPS 14080
2001 04 16.164280 12 05 53.197 +04 12 42.77 20.35 V 645 – Apache Point-Sloan Digital Sky Survey MPS 126827
2001 04 16.167752 12 05 53.058 +04 12 43.41 21.33   645 – Apache Point-Sloan Digital Sky Survey MPS 126827
2004 12 20.45832 10 22 22.26 +12 04 40.1 19.6 R G96 – Mt. Lemmon Survey MPS 126827
2004 12 20.47116 10 22 22.43 +12 04 40.0 19.7 R G96 – Mt. Lemmon Survey MPS 126827
2004 12 20.48402 10 22 22.59 +12 04 39.4 18.7 R G96 – Mt. Lemmon Survey MPS 126827
2004 12 20.49689 10 22 22.79 +12 04 39.8 19.5 R G96 – Mt. Lemmon Survey MPS 126827
2005 02 01.33223 10 10 20.59 +14 16 13.8 20.0 V 691 – Steward Observatory, Kitt Peak-Spacewatch MPS 126422
2005 02 01.35807 10 10 19.34 +14 16 22.4 20.2 V 691 – Steward Observatory, Kitt Peak-Spacewatch MPS 126422
2005 02 01.38366 10 10 18.12 +14 16 30.7 20.0 V 691 – Steward Observatory, Kitt Peak-Spacewatch MPS 126422
2005 02 03.38824 10 08 43.72 +14 27 40.7 20.1   704 – Lincoln Laboratory ETS, New Mexico MPS 126422
2005 02 03.40110 10 08 43.12 +14 27 43.8 19.7   704 – Lincoln Laboratory ETS, New Mexico MPS 126422
2005 02 03.41458 10 08 42.47 +14 27 49.4 20.0   704 – Lincoln Laboratory ETS, New Mexico MPS 126422
2005 02 04.36024 10 07 56.76 +14 33 07.8 19.6 R G96 – Mt. Lemmon Survey MPS 126422
2005 02 04.36817 10 07 56.38 +14 33 10.3 19.2 R G96 – Mt. Lemmon Survey MPS 126422
2005 02 04.37612 10 07 55.98 +14 33 13.1 19.3 R G96 – Mt. Lemmon Survey MPS 126422
2005 02 04.38411 10 07 55.56 +14 33 15.8 19.1 R G96 – Mt. Lemmon Survey MPS 126422
2005 02 14.29499 09 59 22.50 +15 29 47.8 19.3   704 – Lincoln Laboratory ETS, New Mexico MPS 126827
2005 02 14.30723 09 59 21.81 +15 29 51.9 19.9   704 – Lincoln Laboratory ETS, New Mexico MPS 126827
2005 02 14.31998 09 59 21.17 +15 29 56.4 19.8   704 – Lincoln Laboratory ETS, New Mexico MPS 126827
2005 02 14.33222 09 59 20.45 +15 30 00.9 19.8   704 – Lincoln Laboratory ETS, New Mexico MPS 126827
2005 02 14.34465 09 59 19.75 +15 30 05.2 20.1   704 – Lincoln Laboratory ETS, New Mexico MPS 126827
2005 03 01.21035 09 46 19.89 +16 46 45.3 19.9 V 691 – Steward Observatory, Kitt Peak-Spacewatch MPS 127219
2005 03 01.22652 09 46 19.08 +16 46 49.5 20.0 V 691 – Steward Observatory, Kitt Peak-Spacewatch MPS 127219
2005 03 01.24291 09 46 18.24 +16 46 54.2 19.8 V 691 – Steward Observatory, Kitt Peak-Spacewatch MPS 127219
2005 03 10.213847 09 39 37.530 +17 22 02.41 20.26 V 645 – Apache Point-Sloan Digital Sky Survey MPS 390252
2005 03 10.217319 09 39 37.380 +17 22 03.05 21.15   645 – Apache Point-Sloan Digital Sky Survey MPS 390252
2005 03 10.259037 09 39 35.649 +17 22 11.42 20.25 V 645 – Apache Point-Sloan Digital Sky Survey MPS 390252
2005 03 10.262509 09 39 35.506 +17 22 12.13 21.16   645 – Apache Point-Sloan Digital Sky Survey MPS 390252
2007 09 03.42608 01 10 45.22 +02 58 07.3 20.8 V 703 – Catalina Sky Survey MPS 214439
2007 09 03.43255 01 10 45.08 +02 58 07.0 20.9 V 703 – Catalina Sky Survey MPS 214439
2007 09 03.43899 01 10 44.94 +02 58 05.1 20.4 V 703 – Catalina Sky Survey MPS 214439
2007 09 03.44545 01 10 44.72 +02 58 03.9 21.0 V 703 – Catalina Sky Survey MPS 214439
2007 09 10.38229 01 07 26.27 +02 29 02.7 20.1 V 691 – Steward Observatory, Kitt Peak-Spacewatch MPS 215136
2007 09 10.39987 01 07 25.66 +02 28 57.7 20.0 V 691 – Steward Observatory, Kitt Peak-Spacewatch MPS 215136
2007 09 10.41745 01 07 25.03 +02 28 53.2 20.0 V 691 – Steward Observatory, Kitt Peak-Spacewatch MPS 215136
2007 09 13.39335 01 05 40.88 +02 14 53.4 19.8 V G96 – Mt. Lemmon Survey MPS 215136
2007 09 13.40101 01 05 40.56 +02 14 51.0 19.8 V G96 – Mt. Lemmon Survey MPS 215136
2007 09 13.40867 01 05 40.27 +02 14 48.6 19.9 V G96 – Mt. Lemmon Survey MPS 215136
2007 09 13.41628 01 05 39.98 +02 14 46.6 19.8 V G96 – Mt. Lemmon Survey MPS 215136
2007 09 21.30866 01 00 17.20 +01 34 22.2 19.8   704 – Lincoln Laboratory ETS, New Mexico MPS 217760
2007 09 21.32087 01 00 16.71 +01 34 18.8 20.0   704 – Lincoln Laboratory ETS, New Mexico MPS 217760
2007 09 21.33312 01 00 16.18 +01 34 15.1 19.7   704 – Lincoln Laboratory ETS, New Mexico MPS 217760
2007 10 04.32487 00 49 48.36 +00 23 25.3 19.8 V 703 – Catalina Sky Survey MPS 218094
2007 10 04.33248 00 49 47.96 +00 23 22.5 19.6 V 703 – Catalina Sky Survey MPS 218094
2007 10 04.34010 00 49 47.60 +00 23 20.0 19.6 V 703 – Catalina Sky Survey MPS 218094
2007 10 04.34770 00 49 47.20 +00 23 17.0 19.9 V 703 – Catalina Sky Survey MPS 218094
2007 10 12.19830 00 43 12.75 -00 17 14.3 20.4 V 703 – Catalina Sky Survey MPS 220524
2007 10 12.20579 00 43 12.25 -00 17 16.6 20.2 V 703 – Catalina Sky Survey MPS 220524
2007 10 12.21324 00 43 12.03 -00 17 17.0 20.2 V 703 – Catalina Sky Survey MPS 220524
2007 10 12.22064 00 43 11.56 -00 17 20.8 20.1 V 703 – Catalina Sky Survey MPS 220524
2007 10 13.19857 00 42 23.42 -00 22 05.1 19.8   704 – Lincoln Laboratory ETS, New Mexico MPS 220524
2007 10 13.20973 00 42 22.87 -00 22 07.6 20.4   704 – Lincoln Laboratory ETS, New Mexico MPS 220524
2007 10 13.23202 00 42 21.72 -00 22 14.5 20.0   704 – Lincoln Laboratory ETS, New Mexico MPS 220524
2007 10 13.24316 00 42 21.16 -00 22 17.6 20.0   704 – Lincoln Laboratory ETS, New Mexico MPS 220524
2007 10 16.28450 00 39 54.61 -00 36 23.1 19.8 V G96 – Mt. Lemmon Survey MPS 220524
2007 10 16.29390 00 39 54.14 -00 36 25.6 19.7 V G96 – Mt. Lemmon Survey MPS 220524
2007 10 16.30343 00 39 53.67 -00 36 28.2 19.7 V G96 – Mt. Lemmon Survey MPS 220524
2007 10 16.31286 00 39 53.24 -00 36 30.5 19.9 V G96 – Mt. Lemmon Survey MPS 220524
2007 10 19.24681 00 37 37.48 -00 49 06.1 20.2 V 703 – Catalina Sky Survey MPS 222519
2007 10 19.25338 00 37 37.23 -00 49 07.8 19.6 V 703 – Catalina Sky Survey MPS 222519
2007 10 19.25995 00 37 36.94 -00 49 09.4 20.3 V 703 – Catalina Sky Survey MPS 222519
2007 10 19.26654 00 37 36.73 -00 49 10.2 20.3 V 703 – Catalina Sky Survey MPS 222519
2007 11 03.22620 00 28 11.13 -01 34 41.9 20.0 V G96 – Mt. Lemmon Survey MPS 224868
2007 11 03.23454 00 28 10.88 -01 34 42.9 20.2 V G96 – Mt. Lemmon Survey MPS 224868
2007 11 03.24287 00 28 10.63 -01 34 43.8 20.3 V G96 – Mt. Lemmon Survey MPS 224868
2007 11 03.25131 00 28 10.38 -01 34 44.6 20.1 V G96 – Mt. Lemmon Survey MPS 224868
2008 11 08.40260 07 55 19.27 +20 19 33.6 20.9 V G96 – Mt. Lemmon Survey MPS 264605
2008 11 08.41185 07 55 19.45 +20 19 33.1 20.3 V G96 – Mt. Lemmon Survey MPS 264605
2008 11 08.42111 07 55 19.66 +20 19 33.6 20.9 V G96 – Mt. Lemmon Survey MPS 264605
2008 11 08.43043 07 55 19.92 +20 19 33.1 20.7 V G96 – Mt. Lemmon Survey MPS 264605
2008 12 07.32726 07 55 42.06 +20 40 34.2 21.0 V G96 – Mt. Lemmon Survey MPS 268807
2008 12 07.33154 07 55 41.95 +20 40 35.0 20.3 V G96 – Mt. Lemmon Survey MPS 268807
2008 12 07.33587 07 55 41.80 +20 40 35.2 20.4 V G96 – Mt. Lemmon Survey MPS 268807
2008 12 07.34027 07 55 41.70 +20 40 35.7 20.6 V G96 – Mt. Lemmon Survey MPS 268807
2008 12 21.42937 07 47 35.37 +21 15 37.9 20.1 V G96 – Mt. Lemmon Survey MPS 269980
2008 12 21.43481 07 47 35.12 +21 15 38.8 20.1 V G96 – Mt. Lemmon Survey MPS 269980
2008 12 21.44028 07 47 34.83 +21 15 39.7 20.0 V G96 – Mt. Lemmon Survey MPS 269980
2008 12 21.44574 07 47 34.58 +21 15 40.6 20.0 V G96 – Mt. Lemmon Survey MPS 269980
2008 12 29.30098 07 41 04.94 +21 39 49.8 19.5 V 691 – Steward Observatory, Kitt Peak-Spacewatch MPS 271710
